Regional Weather Roundup
Issued by NWS

Home | Current Version | Previous Version | Text Only | Print | Product List | Glossary On
Versions: 1 2 3 4 5 6 7 8 9 10 11 12 13 14 15 16 17 18 19 20 21 22 23 24 25 26 27 28 29 30 31 32 33 34 35 36 37 38 39 40 41 42 43 44 45 46 47 48 49 50
000
ASUS43 KIND 220809
RWRIN

WEATHER ROUNDUP FOR INDIANA
NATIONAL WEATHER SERVICE INDIANAPOLIS IN
300 AM EST FRI NOV 22 2019

NOTE: "FAIR" INDICATES FEW OR NO CLOUDS BELOW 12,000 FEET WITH NO
SIGNIFICANT WEATHER AND/OR OBSTRUCTIONS TO VISIBILITY.

* - STATION DOES NOT REPORT WEATHER SUCH AS PRECIPITATION OR FOG.

+ - STATION NOT QUALITY CONTROLLED BY THE NATIONAL WEATHER SERVICE.
    USE DATA WITH CAUTION...ESPECIALLY DEWPOINT AND RELATIVE
    HUMIDITY OBSERVATIONS.

INZ001>003-010>013-019-020-220900-
NORTHWEST INDIANA

CITY           SKY/WX    TMP DP  RH WIND       PRES   REMARKS
GARY /AIRPORT/ CLOUDY    40  29  65 NW12      30.07R WCI  32
KNOX *+        CLOUDY    37  32  81 NW13G20   30.03R WCI  29
LA PORTE +     CLOUDY    37  32  82 NW15      30.04R WCI  28
MICHIGAN CITY+ CLOUDY    37  36  93 NW8       30.05R WCI  31
MONTICELLO +   CLOUDY    39  34  83 NW13      30.02S WCI  32
RENSSELAER +   CLOUDY    37  32  81 NW10      30.04S WCI  30
VALPARAISO     CLOUDY    39  29  67 NW12G26   30.05R WCI  32

$$

LMZ046-743>745-220900-
SOUTHERN LAKE MICHIGAN

STATION/POSITION TIME  TEMP    WIND        PRES    WAVE
                       AIR SEA DIR/SP/G            HT
                 (UTC) (F)     (DEG/KT/KT) (MB)    (FT)
MICHIGAN CITY    0740   39     310/ 22/ 24   N/A

$$

INZ004-005-014>016-021>024-220900-
NORTH CENTRAL INDIANA

CITY           SKY/WX    TMP DP  RH WIND       PRES   REMARKS
GOSHEN         CLOUDY    39  32  76 NW17G28   29.99R WCI  30
LOGANSPORT +   CLOUDY    39  34  81 NW10G17   30.03R WCI  32
PERU/GRISSOM   CLOUDY    40  40 100 NW13      30.01R WCI  32
PLYMOUTH *+    CLOUDY    37  32  81 NW15G25   30.01R WCI  28
ROCHESTER +    CLOUDY    41  34  75 NW15G23   30.02R
SOUTH BEND     CLOUDY    38  30  73 NW21G28   30.02R WCI  28
WARSAW +       CLOUDY    37  32  81 NW14G23   30.00R WCI  29

$$

INZ006>009-017-018-025>027-220900-
NORTHEAST INDIANA

CITY           SKY/WX    TMP DP  RH WIND       PRES   REMARKS
ANGOLA *+      CLOUDY    37  34  87 NW12G20   29.96R WCI  30
AUBURN +       CLOUDY    39  36  87 NW10G20   29.97R WCI  32
FORT WAYNE     CLOUDY    40  37  89 NW10G20   29.97R WCI  33
HUNTINGTON +   CLOUDY    39  38  94 NW8       29.99R WCI  34
KENDALLVILLE + CLOUDY    38  33  80 NW7G16    29.97R WCI  33

$$

INZ028-029-035-036-043>045-051>053-220900-
WEST CENTRAL INDIANA

CITY           SKY/WX    TMP DP  RH WIND       PRES   REMARKS
CRAWFORDSVL +  CLOUDY    38  34  87 NW18      30.03F WCI  28
GREENCASTLE +  CLOUDY    39  34  81 N10       30.02F WCI  32
LAFAYETTE      CLOUDY    40  35  83 NW8G21    30.03R WCI  34
TERRE HAUTE    CLOUDY    41  36  82 N13G22    30.04S

$$

INZ030>032-037>040-046>048-054>057-064-065-220900-
CENTRAL INDIANA

CITY           SKY/WX    TMP DP  RH WIND       PRES   REMARKS
ANDERSON +     CLOUDY    41  38  90 NW15      30.01R
FISHERS *+     CLOUDY    41  41 100 NW14      30.02
FRANKFORT +    CLOUDY    42  37  80 NW13      30.04R
INDIANAPOLIS   LGT RAIN  41  37  86 NW14      30.02R
-EAGLE CREEK   CLOUDY    41  37  86 NW16      30.01S
KOKOMO +       CLOUDY    39  37  93 NW14G22   30.01R WCI  31
MARION +       CLOUDY    40  40 100 NW8       30.01R FOG     WCI  35
MT COMFORT *+  CLOUDY    41  41 100 NW17      30.01S
SHELBYVILLE    CLOUDY    42  38  85 NW16G22   29.99F
ZIONSVILLE +   CLOUDY    38  38 100 NW9       30.02R WCI  32

$$

INZ033-034-041-042-049-050-058-059-220900-
EAST CENTRAL INDIANA

CITY           SKY/WX    TMP DP  RH WIND       PRES   REMARKS
MUNCIE         CLOUDY    44  38  79 NW14      29.99R
PORTLAND +     CLOUDY    43  37  81 W10G20    29.96R FOG
RICHMOND +     DRIZZLE   41  41 100 NW21      29.97R

$$

INZ060-061-067>069-081>083-085>088-220900-
SOUTHWEST INDIANA

CITY           SKY/WX    TMP DP  RH WIND       PRES   REMARKS
EVANSVILLE     LGT RAIN  44  40  85 N12G18    30.05R FOG
HUNTINGBURG +  LGT RAIN  44  43  96 NW7       30.03R
WASHINGTON +   DRIZZLE   42  42  99 NW7       30.05R

$$

INZ062-063-066-070>080-084-089>092-220900-
SOUTH CENTRAL AND SOUTHEAST INDIANA

CITY           SKY/WX    TMP DP  RH WIND       PRES   REMARKS
BATESVILLE +   CLOUDY    43  43 100 NW8       29.98S
BLOOMINGTON    LGT RAIN  42  38  85 VRB5      30.02S
FRENCH LICK *+ CLOUDY    43  43 100 NW7       30.01S
JEFFERSONVL +  LGT RAIN  53  52  97 CALM      29.97F
MADISON *+     CLOUDY    46  46 100 NW8       30.00R
NORTH VERNON + RAIN      45  43  93 N10       29.99R
SEYMOUR +      DRIZZLE   48  46  93 NW10      30.01R

$$




USA.gov is the U.S. government's official web portal to all federal, state and local government web resources and services.